• In Belarus
  • List of Countries
  • For 7 days
  • Water Temperature
  • Satellite Maps
  • Weather Map
  • Weather Widgets
  • user-avatar
    Login

    Hourly Weather Saint-Eustache

    Today, 18 November, Saturday

    Time Temperature Precipitation Wind Pressure Humidity
    00:00 -1°C° 0 mm 1 mps 759 mmHg 51%
    01:00 -1°C° 0 mm 1 mps 758 mmHg 50%
    02:00 -1°C° 0 mm 1 mps 758 mmHg 49%
    03:00 -1°C° 0 mm 1 mps 757 mmHg 48%
    04:00 -1°C° 0 mm 1 mps 757 mmHg 47%
    05:00 -3°C° 0 mm 2 mps 756 mmHg 47%
    06:00 -3°C° 0 mm 2 mps 756 mmHg 47%
    07:00 -4°C° 0 mm 3 mps 755 mmHg 46%
    08:00 -4°C° 0 mm 3 mps 754 mmHg 43%
    09:00 -3°C° 0 mm 4 mps 753 mmHg 39%
    10:00 -2°C° 0 mm 4 mps 752 mmHg 36%
    11:00 -2°C° 0 mm 4 mps 752 mmHg 36%
    12:00 -1°C° 0 mm 4 mps 751 mmHg 35%
    13:00 0°C° 0 mm 3 mps 750 mmHg 35%
    14:00 0°C° 0 mm 3 mps 749 mmHg 38%
    15:00 0°C° 0 mm 3 mps 748 mmHg 40%
    16:00 0°C° 0 mm 3 mps 748 mmHg 43%
    17:00 0°C° 0 mm 3 mps 747 mmHg 44%
    18:00 0°C° 0 mm 3 mps 746 mmHg 45%
    19:00 0°C° 0 mm 3 mps 746 mmHg 46%
    20:00 0°C° 0.2 mm 3 mps 745 mmHg 50%
    21:00 0°C° 0.2 mm 3 mps 744 mmHg 54%
    22:00 -1°C° 0.2 mm 4 mps 743 mmHg 58%
    23:00 0°C° 0.3 mm 4 mps 742 mmHg 66%

    Tomorrow, 19 November, Sunday

    Time Temperature Precipitation Wind Pressure Humidity
    00:00 0°C° 0.3 mm 4 mps 740 mmHg 74%
    01:00 0°C° 0.3 mm 4 mps 739 mmHg 82%
    02:00 0°C° 0.8 mm 4 mps 738 mmHg 85%
    03:00 0°C° 0.8 mm 4 mps 736 mmHg 89%
    04:00 +1°C° 0.8 mm 4 mps 735 mmHg 93%
    05:00 +1°C° 3.1 mm 4 mps 734 mmHg 94%
    06:00 +1°C° 3.1 mm 4 mps 733 mmHg 94%
    07:00 +3°C° 3.1 mm 4 mps 733 mmHg 95%
    08:00 +1°C° 0.6 mm 5 mps 733 mmHg 93%
    09:00 +1°C° 0.6 mm 6 mps 734 mmHg 91%
    10:00 0°C° 0.6 mm 7 mps 734 mmHg 89%
    11:00 -1°C° 0.1 mm 8 mps 735 mmHg 85%
    12:00 -1°C° 0.1 mm 8 mps 736 mmHg 81%
    13:00 -3°C° 0.1 mm 9 mps 737 mmHg 77%
    14:00 -2°C° 0.1 mm 8 mps 738 mmHg 76%
    15:00 -2°C° 0.1 mm 8 mps 740 mmHg 75%
    16:00 -2°C° 0.1 mm 8 mps 741 mmHg 73%
    17:00 -4°C° 0 mm 8 mps 742 mmHg 74%
    18:00 -4°C° 0 mm 7 mps 743 mmHg 74%
    19:00 -6°C° 0 mm 7 mps 744 mmHg 74%
    20:00 -6°C° 0 mm 7 mps 745 mmHg 73%
    21:00 -6°C° 0 mm 7 mps 746 mmHg 73%
    22:00 -7°C° 0 mm 7 mps 747 mmHg 72%
    23:00 -7°C° 0 mm 7 mps 747 mmHg 72%

    Day after tomorrow, 20 November, Monday

    Time Temperature Precipitation Wind Pressure Humidity
    00:00 -8°C° 0 mm 7 mps 748 mmHg 72%
    01:00 -9°C° 0 mm 7 mps 748 mmHg 71%
    02:00 -9°C° 0 mm 7 mps 749 mmHg 70%
    03:00 -11°C° 0 mm 7 mps 750 mmHg 70%
    04:00 -12°C° 0 mm 7 mps 750 mmHg 69%
    05:00 -12°C° 0 mm 7 mps 751 mmHg 68%
    06:00 -12°C° 0 mm 7 mps 752 mmHg 68%
    07:00 -13°C° 0 mm 7 mps 752 mmHg 67%
    08:00 -13°C° 0 mm 7 mps 753 mmHg 64%
    09:00 -12°C° 0 mm 7 mps 754 mmHg 61%
    10:00 -12°C° 0 mm 7 mps 754 mmHg 58%
    11:00 -11°C° 0 mm 7 mps 754 mmHg 56%
    12:00 -9°C° 0 mm 7 mps 754 mmHg 54%
    13:00 -8°C° 0 mm 7 mps 754 mmHg 51%
    14:00 -6°C° 0 mm 6 mps 754 mmHg 54%
    15:00 -6°C° 0 mm 6 mps 754 mmHg 57%
    16:00 -6°C° 0 mm 5 mps 754 mmHg 59%
    17:00 -5°C° 0 mm 4 mps 755 mmHg 63%
    18:00 -5°C° 0 mm 3 mps 755 mmHg 68%
    19:00 -3°C° 0 mm 2 mps 756 mmHg 72%
    20:00 -3°C° 0 mm 2 mps 756 mmHg 73%
    21:00 -1°C° 0 mm 1 mps 756 mmHg 74%
    22:00 -1°C° 0 mm 1 mps 756 mmHg 76%
    23:00 -1°C° 0 mm 1 mps 756 mmHg 79%

    21 November, Tuesday

    Time Temperature Precipitation Wind Pressure Humidity
    00:00 -1°C° 0 mm 1 mps 755 mmHg 81%
    01:00 -3°C° 0 mm 2 mps 755 mmHg 84%
    02:00 -2°C° 0 mm 2 mps 755 mmHg 85%
    03:00 -2°C° 0 mm 2 mps 755 mmHg 86%
    04:00 -1°C° 0 mm 2 mps 754 mmHg 87%
    05:00 0°C° 0 mm 3 mps 754 mmHg 86%
    06:00 -1°C° 0 mm 4 mps 754 mmHg 84%
    07:00 0°C° 0 mm 4 mps 754 mmHg 83%
    08:00 +1°C° 0 mm 5 mps 754 mmHg 78%
    09:00 +2°C° 0 mm 5 mps 754 mmHg 73%
    10:00 +3°C° 0 mm 6 mps 753 mmHg 68%
    11:00 +4°C° 0 mm 6 mps 753 mmHg 64%
    12:00 +6°C° 0 mm 5 mps 752 mmHg 61%
    13:00 +7°C° 0 mm 5 mps 752 mmHg 58%
    14:00 +6°C° 0 mm 5 mps 752 mmHg 62%
    15:00 +5°C° 0 mm 4 mps 752 mmHg 65%
    16:00 +4°C° 0 mm 4 mps 752 mmHg 69%
    17:00 +4°C° 0 mm 4 mps 751 mmHg 69%
    18:00 +4°C° 0 mm 4 mps 751 mmHg 70%
    19:00 +2°C° 0 mm 5 mps 751 mmHg 70%
    20:00 +3°C° 0.3 mm 5 mps 751 mmHg 73%
    21:00 +3°C° 0.3 mm 6 mps 751 mmHg 76%
    22:00 +3°C° 0.3 mm 6 mps 751 mmHg 78%
    23:00 +2°C° 0.1 mm 6 mps 752 mmHg 79%

    22 November, Wednesday

    Time Temperature Precipitation Wind Pressure Humidity
    00:00 +1°C° 0.1 mm 5 mps 753 mmHg 80%
    01:00 0°C° 0.1 mm 4 mps 753 mmHg 81%
    02:00 -1°C° 0 mm 4 mps 754 mmHg 81%
    03:00 -2°C° 0 mm 5 mps 755 mmHg 82%
    04:00 -4°C° 0 mm 5 mps 756 mmHg 82%
    05:00 -3°C° 0 mm 4 mps 757 mmHg 81%
    06:00 -4°C° 0 mm 4 mps 758 mmHg 80%
    07:00 -4°C° 0 mm 4 mps 759 mmHg 80%
    08:00 -4°C° 0 mm 4 mps 760 mmHg 73%
    09:00 -4°C° 0 mm 4 mps 760 mmHg 66%
    10:00 -5°C° 0 mm 5 mps 761 mmHg 59%
    11:00 -3°C° 0 mm 4 mps 761 mmHg 57%
    12:00 -3°C° 0 mm 4 mps 761 mmHg 55%
    13:00 -3°C° 0 mm 4 mps 761 mmHg 53%
    14:00 -2°C° 0 mm 3 mps 761 mmHg 56%
    15:00 -4°C° 0 mm 3 mps 761 mmHg 60%
    16:00 -4°C° 0 mm 3 mps 761 mmHg 63%
    17:00 -3°C° 0 mm 2 mps 762 mmHg 66%
    18:00 -4°C° 0 mm 2 mps 762 mmHg 68%
    19:00 -4°C° 0 mm 2 mps 763 mmHg 71%
    20:00 -4°C° 0 mm 2 mps 763 mmHg 71%
    21:00 -4°C° 0 mm 2 mps 763 mmHg 71%
    22:00 -2°C° 0 mm 1 mps 763 mmHg 72%
    23:00 -2°C° 0 mm 1 mps 763 mmHg 72%

    23 November, Thursday

    Time Temperature Precipitation Wind Pressure Humidity
    00:00 -3°C° 0 mm 1 mps 763 mmHg 72%
    01:00 -3°C° 0 mm 1 mps 762 mmHg 72%
    02:00 -3°C° 0 mm 1 mps 762 mmHg 72%
    03:00 -4°C° 0 mm 0 mps 762 mmHg 72%
    04:00 -4°C° 0 mm 0 mps 762 mmHg 71%
    05:00 -4°C° 0 mm 0 mps 762 mmHg 71%
    06:00 -3°C° 0 mm 1 mps 762 mmHg 70%
    07:00 -3°C° 0 mm 1 mps 762 mmHg 70%
    08:00 -2°C° 0 mm 1 mps 761 mmHg 65%
    09:00 -3°C° 0 mm 2 mps 761 mmHg 60%
    10:00 -2°C° 0 mm 2 mps 760 mmHg 56%
    11:00 -1°C° 0 mm 2 mps 759 mmHg 53%
    12:00 -1°C° 0 mm 2 mps 758 mmHg 51%
    13:00 +1°C° 0 mm 2 mps 757 mmHg 49%
    14:00 -1°C° 0 mm 2 mps 756 mmHg 51%
    15:00 -1°C° 0 mm 2 mps 755 mmHg 53%
    16:00 -2°C° 0 mm 2 mps 755 mmHg 56%
    17:00 -2°C° 0 mm 2 mps 754 mmHg 56%
    18:00 -2°C° 0 mm 2 mps 754 mmHg 57%
    19:00 -3°C° 0 mm 2 mps 753 mmHg 58%
    20:00 0°C° 0 mm 1 mps 753 mmHg 58%
    21:00 0°C° 0 mm 1 mps 752 mmHg 58%
    22:00 0°C° 0 mm 1 mps 751 mmHg 58%
    23:00 0°C° 0 mm 1 mps 751 mmHg 59%
    Show more